User: anonymous   Login
Location: ????????
(54.9045°N, 39.1041°E)
Time: 17:52:51
(UTC+00:00)
Language:

Cosmos 2026 Rocket - Orbit

View from above orbital plane
View from above orbital plane
View from above satellite
View from above satellite

Ground track
Ground track

The orbit data is extracted from the following two-line orbital elements,

1 20046U 89042B   24165.56613739  .00000149  00000-0  13086-3 0  9998
2 20046  82.9366 199.8522 0043466 106.9633 253.6296 13.78438498760769
Epoch (UTC): 13 June 2024 13:35:14
Eccentricity: 0.0043466
inclination: 82.9366°
perigee height: 937 km
apogee height: 1001 km
right ascension of ascending node: 199.8522°
argument of perigee: 106.9633°
revolutions per day: 13.78438498
mean anomaly at epoch: 253.6296°
orbit number at epoch: 76076

The dashed part of the orbit path shows where the satellite is in the earth's shadow,  

DLR